DL1ONI-13 Weather Reports


time (UTC)temp
C
wind
direction
speed
KPH
gust
KPH
rain 1hr
cm
rain 24hr
cm
rain mn
cm
humidity
%
barometer
mb
20260506103041 20 82 1.6 4.8 0.00 0.15 0.00 48 1012.9
20260506102042 20 60 1.6 4.8 0.00 0.15 0.00 47 1012.9
20260506101023 20 42 3.2 3.2 0.00 0.15 0.00 47 1012.7
20260506100023 20 45 1.6 4.8 0.00 0.15 0.00 47 1012.7
20260506095024 20 338 1.6 6.4 0.00 0.15 0.00 47 1012.2
20260506094024 20 320 1.6 1.6 0.00 0.15 0.00 49 1012.1
20260506093024 20 46 3.2 4.8 0.00 0.15 0.00 49 1012.8
20260506092044 20 81 1.6 3.2 0.00 0.15 0.00 50 1012.8
20260506091024 20 200 1.6 3.2 0.00 0.15 0.00 49 1012.9
20260506090025 19 128 1.6 3.2 0.00 0.15 0.00 51 1012.8
20260506085025 18 144 0.0 3.2 0.00 0.15 0.00 51 1012.8
20260506084025 18 33 1.6 3.2 0.00 0.15 0.00 52 1012.7
20260506083025 18 66 1.6 1.6 0.00 0.15 0.00 54 1012.7
20260506082025 18 187 1.6 4.8 0.00 0.15 0.00 56 1012.7
20260506081024 18 71 1.6 3.2 0.00 0.15 0.00 58 1012.7
20260506073024 16 223 1.6 4.8 0.00 0.15 0.00 59 1012.6
20260506072024 16 243 1.6 3.2 0.00 0.15 0.00 60 1012.6
20260506071025 16 160 1.6 1.6 0.00 0.15 0.00 60 1013.0
20260506062016 14 10 1.6 4.8 0.00 0.15 0.00 64 1012.6
20260506061016 13 149 1.6 1.6 0.00 0.15 0.00 67 1011.8
20260506051017 12 210 0.0 1.6 0.00 0.15 0.00 69 1011.3
20260506045017 11 0.0 0.0 0.00 0.15 0.00 70 1011.6
20260506044018 11 0.0 0.0 0.00 0.15 0.00 70 1011.6
20260506043018 11 0.0 0.0 0.00 0.15 0.00 71 1011.5
20260506042058 10 339 0.0 0.0 0.00 0.15 0.00 71 1011.5
20260506041018 10 0.0 0.0 0.00 0.15 0.00 71 1011.3
20260506040019 10 194 0.0 0.0 0.00 0.15 0.00 72 1011.3
20260506035019 10 248 1.6 3.2 0.00 0.15 0.00 72 1011.8
20260506034019 10 196 1.6 3.2 0.00 0.15 0.00 71 1011.8
20260506033019 10 210 0.0 3.2 0.00 0.15 0.00 71 1012.8
20260506032018 10 183 1.6 3.2 0.00 0.15 0.00 71 1012.8
20260506031038 10 223 1.6 4.8 0.00 0.15 0.00 71 1012.7
20260506030019 10 243 1.6 3.2 0.00 0.15 0.00 71 1012.9
20260506025018 10 194 1.6 3.2 0.00 0.15 0.00 70 1013.0
20260506024017 10 173 1.6 4.8 0.00 0.15 0.00 69 1013.0
20260506023018 10 219 0.0 0.0 0.00 0.15 0.00 69 1013.4
20260506022037 11 236 0.0 3.2 0.00 0.15 0.00 69 1013.5
20260506021018 11 261 0.0 0.0 0.00 0.15 0.00 68 1013.6
20260506020018 11 239 0.0 3.2 0.00 0.15 0.00 68 1013.6
20260506015018 11 239 1.6 3.2 0.00 0.15 0.00 68 1013.6
20260506014019 11 234 1.6 3.2 0.00 0.15 0.00 68 1013.6
20260506013019 11 180 1.6 8.0 0.00 0.15 0.00 68 1013.8
20260506012019 12 249 1.6 1.6 0.00 0.15 0.00 69 1013.9
20260506011020 12 224 3.2 6.4 0.00 0.15 0.00 68 1013.9
20260506010020 12 223 3.2 6.4 0.00 0.15 0.00 69 1013.8
20260506005020 12 204 3.2 6.4 0.00 0.15 0.00 69 1013.8
20260506004021 12 226 4.8 6.4 0.00 0.15 0.00 69 1013.8
20260506003021 12 243 3.2 4.8 0.00 0.15 0.00 69 1014.0
20260506002022 12 225 4.8 6.4 0.00 0.15 0.00 69 1014.0
20260506001022 12 235 3.2 9.7 0.00 0.15 0.00 69 1014.2
20260506000022 12 254 3.2 3.2 0.00 0.15 0.00 70 1014.1
20260505235023 12 239 3.2 6.4 0.00 0.15 0.00 70 1014.3
20260505234022 13 231 1.6 4.8 0.00 0.15 0.00 69 1014.3
20260505233023 13 199 0.0 1.6 0.00 0.15 0.00 68 1014.4
20260505232103 13 228 0.0 1.6 0.00 0.15 0.00 68 1014.4
20260505231023 13 242 0.0 0.0 0.00 0.15 0.00 68 1014.3
20260505230023 13 222 0.0 3.2 0.00 0.15 0.00 68 1014.3
20260505225023 13 257 0.0 0.0 0.00 0.15 0.00 67 1014.1
20260505224044 14 166 0.0 0.0 0.00 0.15 0.00 67 1014.1
20260505223025 14 222 0.0 0.0 0.00 0.15 0.00 66 1014.2
20260505222025 14 246 0.0 0.0 0.00 0.15 0.00 67 1014.2
20260505221024 14 158 1.6 4.8 0.00 0.15 0.00 67 1014.5
20260505220044 14 168 1.6 6.4 0.00 0.15 0.00 66 1014.4
20260505215023 15 179 1.6 3.2 0.00 0.15 0.15 66 1014.6
20260505214022 15 209 1.6 4.8 0.00 0.15 0.15 65 1014.6
20260505213022 15 208 0.0 3.2 0.00 0.15 0.15 65 1014.7
20260505212023 14 259 0.0 1.6 0.00 0.15 0.15 64 1014.7
20260505211044 14 227 1.6 4.8 0.00 0.15 0.15 64 1014.4
20260505210024 14 223 1.6 3.2 0.00 0.15 0.15 65 1014.3
20260505205024 14 223 1.6 3.2 0.00 0.15 0.15 65 1014.4
20260505204024 14 246 3.2 6.4 0.00 0.15 0.15 65 1014.4
20260505203024 15 266 3.2 6.4 0.00 0.15 0.15 64 1013.3
20260505202023 15 283 3.2 6.4 0.00 0.15 0.15 65 1013.3
20260505201024 15 309 3.2 4.8 0.00 0.15 0.15 64 1012.3
20260505200024 15 306 1.6 4.8 0.00 0.15 0.15 64 1012.3
20260505195025 15 296 1.6 6.4 0.00 0.15 0.15 63 1012.2
20260505194045 15 330 0.0 3.2 0.00 0.15 0.15 62 1012.2
20260505193025 15 272 1.6 1.6 0.00 0.15 0.15 61 1011.7
20260505192025 16 261 3.2 4.8 0.00 0.15 0.15 61 1011.7
20260505191016 16 275 1.6 8.0 0.00 0.15 0.15 61 1011.4
20260505190016 16 333 1.6 1.6 0.00 0.15 0.15 61 1011.4
20260505185017 -17 0.0 0.0 0.00 0.15 0.15
20260505184017 16 0.0 0.0 0.00 0.15 0.15 60 1011.4
20260505183017 16 248 4.8 6.4 0.00 0.15 0.15 60 1011.0
20260505182037 17 264 4.8 6.4 0.00 0.15 0.15 60 1011.1
20260505181017 17 293 4.8 6.4 0.00 0.15 0.15 59 1011.1
20260505180017 17 265 6.4 6.4 0.00 0.15 0.15 59 1011.2
20260505175038 17 282 6.4 9.7 0.00 0.15 0.15 59 1011.0
20260505174020 17 253 4.8 6.4 0.00 0.15 0.15 59 1011.0
20260505173020 17 278 4.8 4.8 0.00 0.15 0.15 59 1011.0
20260505172019 17 247 8.0 9.7 0.00 0.15 0.15 58 1011.0
20260505171040 17 256 8.0 9.7 0.00 0.15 0.15 58 1011.1
20260505170040 17 256 6.4 14.5 0.00 0.15 0.15 57 1010.8
20260505165020 17 248 6.4 11.3 0.00 0.15 0.15 57 1010.8
20260505164020 18 279 8.0 9.7 0.00 0.15 0.15 56 1010.9
20260505163019 18 279 8.0 12.9 0.00 0.15 0.15 55 1010.8
20260505162040 18 293 8.0 8.0 0.00 0.15 0.15 55 1010.8
20260505161021 18 293 9.7 11.3 0.00 0.15 0.15 55 1010.8
20260505153020 18 270 6.4 8.0 0.15 0.15 0.15 58 1010.5
20260505152020 18 296 8.0 11.3 0.15 0.15 0.15 60 1010.5
20260505151040 19 307 4.8 14.5 0.15 0.15 0.15 58 1011.0
20260505125020 27 135 4.8 6.4 0.00 0.00 0.00 34 1012.2
20260505124040 26 174 3.2 12.9 0.00 0.00 0.00 35 1012.2
20260505123021 26 105 1.6 6.4 0.00 0.00 0.00 34 1012.4
20260505122042 26 81 3.2 3.2 0.00 0.00 0.00 34 1012.4
20260505121023 26 62 1.6 4.8 0.00 0.00 0.00 35 1012.6
20260505120043 26 206 3.2 6.4 0.00 0.00 0.00 35 1012.6
20260505115024 25 131 1.6 8.0 0.00 0.00 0.00 37 1012.8
20260505114025 25 44 3.2 3.2 0.00 0.00 0.00 36 1012.7
20260505113025 24 342 3.2 8.0 0.00 0.00 0.00 37 1013.0
20260505112025 23 57 1.6 3.2 0.00 0.00 0.00 36 1013.0
20260505111016 23 32 3.2 6.4 0.00 0.00 0.00 36 1013.1